Change the Weather History Date:

Friday, April 11, 2014

  Actual Average Record
Temperature  
Mean Temperature 58 °F -  
Max Temperature 68 °F 55 °F 73 °F (2011)
Min Temperature 48 °F 33 °F 19 °F (2007)
Degree Days  
Heating Degree Days 7    
Growing Degree Days 8 (Base 50)    
Moisture  
Dew Point 41 °F    
Average Humidity 61    
Maximum Humidity 90    
Minimum Humidity 35    
Precipitation  
Precipitation 0.17 in - - ()
Sea Level Pressure  
Sea Level Pressure 29.97 in    
Wind  
Wind Speed 7 mph (South)    
Max Wind Speed 10 mph    
Max Gust Speed -    
Visibility 10 miles    
Events Rain    
Averages and records for this station are not official NWS values.
T = Trace of Precipitation, MM = Missing Value Source: NWS Daily Summary

Daily Weather History Graph

Daily Weather History Graph

Search for Another Location

Airport or City:

Trip Planner

Search our weather history database for the weather conditions in past years. The results will help you decide how hot, cold, wet, or windy it might be!

Date:

Astronomy

Apr. 11, 2014 Rise Set
Actual Time 6:16 AM EDT 7:27 PM EDT
Civil Twilight 5:47 AM EDT 7:56 PM EDT
Nautical Twilight 5:13 AM EDT 8:31 PM EDT
Astronomical Twilight 4:37 AM EDT 9:07 PM EDT
Moon 4:02 PM EDT (4/11) 4:14 AM EDT (4/11)
Length of Visible Light 14h 08m
Length of Day
13h 11m
Waxing Gibbous, 87% of the Moon is Illuminated
Apr 11
Waxing Gibbous
Apr 15
Full
Apr 22
Last Quarter
Apr 29
New
May 6
First Quarter

Hourly Weather History & Observations

Time (EDT) Temp. Dew Point Humidity Pressure Visibility Wind Dir Wind Speed Gust Speed Precip Events Conditions
12:53 AM 48.9 °F 36.0 °F 61% 30.00 in 10.0 mi SSE 6.9 mph - 0.00 in   Overcast
1:53 AM 48.9 °F 35.1 °F 59% 29.97 in 10.0 mi South 9.2 mph - N/A   Mostly Cloudy
2:53 AM 48.0 °F 35.1 °F 61% 29.94 in 10.0 mi South 9.2 mph - N/A   Partly Cloudy
3:53 AM 48.9 °F 34.0 °F 56% 29.92 in 10.0 mi South 9.2 mph - N/A   Clear
4:53 AM 48.9 °F 34.0 °F 56% 29.91 in 10.0 mi South 6.9 mph - N/A   Overcast
5:53 AM 50.0 °F 34.0 °F 54% 29.94 in 10.0 mi South 10.4 mph - N/A   Mostly Cloudy
6:53 AM 50.0 °F 35.1 °F 57% 29.95 in 10.0 mi SSE 3.5 mph - N/A   Mostly Cloudy
7:53 AM 51.1 °F 35.1 °F 54% 29.97 in 10.0 mi Calm Calm - N/A   Mostly Cloudy
8:53 AM 53.1 °F 36.0 °F 52% 29.99 in 10.0 mi Calm Calm - N/A   Partly Cloudy
9:53 AM 57.9 °F 37.0 °F 46% 29.99 in 10.0 mi SSE 5.8 mph - N/A   Partly Cloudy
10:53 AM 62.1 °F 37.9 °F 41% 29.98 in 10.0 mi South 4.6 mph - N/A   Clear
11:53 AM 64.9 °F 39.0 °F 39% 29.96 in 10.0 mi SSE 9.2 mph - N/A   Clear
12:53 PM 68.0 °F 39.0 °F 35% 29.95 in 10.0 mi SE 6.9 mph - N/A   Clear
1:53 PM 66.9 °F 39.9 °F 37% 29.94 in 10.0 mi SSE 8.1 mph - N/A   Overcast
2:53 PM 68.0 °F 41.0 °F 37% 29.93 in 10.0 mi SSE 10.4 mph - N/A   Mostly Cloudy
3:53 PM 64.0 °F 46.0 °F 52% 29.94 in 10.0 mi SSW 5.8 mph - 0.00 in Rain Light Rain
4:53 PM 59.0 °F 52.0 °F 78% 29.97 in 10.0 mi WSW 6.9 mph - 0.02 in Rain Light Rain
5:53 PM 57.0 °F 52.0 °F 83% 29.97 in 8.0 mi NNW 4.6 mph - 0.05 in Rain Light Rain
6:53 PM 55.9 °F 51.1 °F 84% 29.99 in 10.0 mi North 5.8 mph - 0.00 in Rain Light Rain
7:53 PM 53.1 °F 48.9 °F 86% 30.02 in 10.0 mi WNW 4.6 mph - 0.02 in Rain Light Rain
8:53 PM 52.0 °F 46.9 °F 83% 30.04 in 10.0 mi NNW 6.9 mph - 0.00 in   Overcast
9:53 PM 50.0 °F 46.0 °F 86% 30.04 in 8.0 mi Calm Calm - 0.04 in Rain Rain
10:53 PM 50.0 °F 46.0 °F 86% 30.03 in 10.0 mi Calm Calm - 0.03 in Rain Light Rain
11:53 PM 48.9 °F 46.0 °F 90% 30.01 in 10.0 mi North 5.8 mph - 0.01 in Rain Light Rain